Tracking 34406 objects as of 15-Jun-2026
HD Live streaming from Space Station
objects crossing your sky now

STARLINK-5789

Track STARLINK-5789 now!
10-day predictions
STARLINK-5789 is classified as:


NORAD ID: 56003
Int'l Code: 2023-042T
Perigee: 488.7 km
Apogee: 491.7 km
Inclination: 43.0 °
Period: 94.3 minutes
Semi major axis: 6861 km
RCS: Unknown
Launch date: March 24, 2022
Source: United States (US)
Launch site: AIR FORCE EASTERN TEST RANGE (AFETR)
Your satellite tracking list
Your tracking list is empty




NASA's NSSDC Master Catalog

Two Line Element Set (TLE):
1 56003U 23042T   26165.90101412  .00000083  00000-0  12550-4 0  9991
2 56003  43.0066 230.8609 0002242 299.2740  60.7887 15.27577811177731
Source of the keplerian elements: AFSPC